Track STARLINK-1545 now! 10-day predictions STARLINK-1545 is classified as:
1 46156U 20057AR 21108.28220851 -.00000048 00000-0 15707-4 0 9993 2 46156 53.0606 36.0996 0001849 63.2177 296.9001 15.06405263 38342